Time,TemperatureF,DewpointF,PressureIn,WindDirection,WindDirectionDegrees,WindSpeedMPH,WindSpeedGustMPH,Humidity,HourlyPrecipIn,Conditions,Clouds,dailyrainin,SoftwareType,DateUTC
2013-04-27 00:03:00,74.0,67.0,30.22,ENE,57,2.0,6.0,78,0.00,,,0.00,,2013-04-27 04:03:00,
2013-04-27 00:13:00,74.0,67.0,30.22,ENE,57,2.0,6.0,78,0.00,,,0.00,,2013-04-27 04:13:00,
2013-04-27 00:23:00,74.0,67.0,30.22,ENE,64,2.0,8.0,78,0.00,,,0.00,,2013-04-27 04:23:00,
2013-04-27 00:33:00,74.0,67.0,30.22,East,89,3.0,8.0,78,0.00,,,0.00,,2013-04-27 04:33:00,
2013-04-27 00:43:00,74.0,67.0,30.22,East,89,3.0,8.0,78,0.00,,,0.00,,2013-04-27 04:43:00,
2013-04-27 00:53:00,74.0,67.0,30.22,NE,49,2.0,6.0,78,0.00,,,0.00,,2013-04-27 04:53:00,
2013-04-27 01:02:00,73.0,66.0,30.22,ENE,67,3.0,6.0,78,0.00,,,0.00,,2013-04-27 05:02:00,
2013-04-27 01:12:00,73.0,66.0,30.22,ENE,67,3.0,6.0,78,0.00,,,0.00,,2013-04-27 05:12:00,
2013-04-27 01:22:00,73.0,66.0,30.21,NE,54,2.0,7.0,79,0.00,,,0.00,,2013-04-27 05:22:00,
2013-04-27 01:32:00,73.0,66.0,30.21,East,84,2.0,7.0,79,0.00,,,0.00,,2013-04-27 05:32:00,
2013-04-27 01:42:00,73.0,66.0,30.21,East,84,2.0,7.0,79,0.00,,,0.00,,2013-04-27 05:42:00,
2013-04-27 01:52:00,73.0,66.0,30.20,ENE,59,2.0,5.0,79,0.00,,,0.00,,2013-04-27 05:52:00,
2013-04-27 02:02:00,73.0,66.0,30.19,ESE,105,3.0,7.0,79,0.00,,,0.00,,2013-04-27 06:02:00,
2013-04-27 02:12:00,73.0,66.0,30.19,ESE,105,3.0,7.0,79,0.00,,,0.00,,2013-04-27 06:12:00,
2013-04-27 02:22:00,73.0,66.0,30.19,ENE,58,3.0,9.0,78,0.00,,,0.00,,2013-04-27 06:22:00,
2013-04-27 02:32:00,73.0,66.0,30.18,ENE,69,3.0,9.0,79,0.00,,,0.00,,2013-04-27 06:32:00,
2013-04-27 02:42:00,73.0,66.0,30.18,ENE,69,3.0,9.0,79,0.00,,,0.00,,2013-04-27 06:42:00,
2013-04-27 02:52:00,73.0,66.0,30.17,ENE,61,5.0,8.0,79,0.00,,,0.00,,2013-04-27 06:52:00,
2013-04-27 03:01:00,73.0,66.0,30.17,East,84,5.0,9.0,78,0.00,,,0.00,,2013-04-27 07:01:00,
2013-04-27 03:11:00,73.0,66.0,30.17,East,84,5.0,9.0,78,0.00,,,0.00,,2013-04-27 07:11:00,
2013-04-27 03:21:00,73.0,66.0,30.17,East,86,2.0,8.0,78,0.00,,,0.00,,2013-04-27 07:21:00,
2013-04-27 03:32:00,73.0,66.0,30.16,ESE,102,3.0,8.0,78,0.00,,,0.00,,2013-04-27 07:32:00,
2013-04-27 03:42:00,73.0,66.0,30.16,ESE,102,3.0,8.0,78,0.00,,,0.00,,2013-04-27 07:42:00,
2013-04-27 03:52:00,73.0,66.0,30.16,NE,46,1.0,9.0,78,0.00,,,0.00,,2013-04-27 07:52:00,
2013-04-27 04:02:00,73.0,66.0,30.16,East,91,1.0,6.0,78,0.00,,,0.00,,2013-04-27 08:02:00,
2013-04-27 04:11:00,73.0,66.0,30.16,East,91,1.0,6.0,78,0.00,,,0.00,,2013-04-27 08:11:00,
2013-04-27 04:21:00,72.0,64.0,30.16,East,86,1.0,7.0,76,0.00,,,0.00,,2013-04-27 08:21:00,
2013-04-27 04:33:00,72.0,64.0,30.15,East,85,1.0,7.0,76,0.00,,,0.00,,2013-04-27 08:33:00,
2013-04-27 04:42:00,72.0,64.0,30.15,East,85,1.0,7.0,76,0.00,,,0.00,,2013-04-27 08:42:00,
2013-04-27 04:52:00,72.0,64.0,30.15,ENE,77,1.0,7.0,76,0.00,,,0.00,,2013-04-27 08:52:00,
2013-04-27 05:01:00,72.0,64.0,30.14,East,96,2.0,5.0,75,0.00,,,0.00,,2013-04-27 09:01:00,
2013-04-27 05:11:00,72.0,64.0,30.14,East,96,2.0,5.0,75,0.00,,,0.00,,2013-04-27 09:11:00,
2013-04-27 05:22:00,72.0,64.0,30.14,East,92,1.0,5.0,76,0.00,,,0.00,,2013-04-27 09:22:00,
2013-04-27 05:33:00,71.0,64.0,30.14,ENE,73,1.0,6.0,78,0.00,,,0.00,,2013-04-27 09:33:00,
2013-04-27 05:42:00,71.0,64.0,30.14,ENE,73,1.0,6.0,78,0.00,,,0.00,,2013-04-27 09:42:00,
2013-04-27 05:53:00,71.0,64.0,30.14,ENE,74,1.0,4.0,79,0.00,,,0.00,,2013-04-27 09:53:00,
2013-04-27 06:03:00,71.0,65.0,30.14,East,81,1.0,4.0,80,0.00,,,0.00,,2013-04-27 10:03:00,
2013-04-27 06:12:00,71.0,65.0,30.14,East,81,1.0,4.0,80,0.00,,,0.00,,2013-04-27 10:12:00,
2013-04-27 06:22:00,71.0,65.0,30.14,East,94,1.0,3.0,81,0.00,,,0.00,,2013-04-27 10:22:00,
2013-04-27 06:33:00,71.0,66.0,30.14,ENE,74,1.0,4.0,83,0.00,,,0.00,,2013-04-27 10:33:00,
2013-04-27 06:42:00,71.0,66.0,30.14,ENE,74,1.0,4.0,83,0.00,,,0.00,,2013-04-27 10:42:00,
2013-04-27 06:52:00,70.0,65.0,30.15,ENE,70,1.0,5.0,84,0.00,,,0.00,,2013-04-27 10:52:00,
2013-04-27 07:02:00,70.0,64.0,30.15,ENE,69,0.0,3.0,82,0.00,,,0.00,,2013-04-27 11:02:00,
2013-04-27 07:12:00,70.0,64.0,30.15,ENE,69,0.0,3.0,82,0.00,,,0.00,,2013-04-27 11:12:00,
2013-04-27 07:22:00,70.0,65.0,30.16,ENE,69,0.0,3.0,83,0.00,,,0.00,,2013-04-27 11:22:00,
2013-04-27 07:32:00,70.0,65.0,30.16,ENE,69,1.0,3.0,84,0.00,,,0.00,,2013-04-27 11:32:00,
2013-04-27 07:42:00,70.0,65.0,30.16,ENE,69,1.0,3.0,84,0.00,,,0.00,,2013-04-27 11:42:00,
2013-04-27 07:52:00,72.0,66.0,30.16,East,98,1.0,5.0,82,0.00,,,0.00,,2013-04-27 11:52:00,
2013-04-27 08:01:00,74.0,66.0,30.17,ENE,76,1.0,6.0,77,0.00,,,0.00,,2013-04-27 12:01:00,
2013-04-27 08:11:00,74.0,66.0,30.17,ENE,76,1.0,6.0,77,0.00,,,0.00,,2013-04-27 12:11:00,
2013-04-27 08:22:00,76.0,66.0,30.17,East,101,3.0,9.0,71,0.00,,,0.00,,2013-04-27 12:22:00,
2013-04-27 08:32:00,77.0,66.0,30.18,East,97,3.0,8.0,69,0.00,,,0.00,,2013-04-27 12:32:00,
2013-04-27 08:42:00,77.0,66.0,30.18,East,97,3.0,8.0,69,0.00,,,0.00,,2013-04-27 12:42:00,
2013-04-27 08:52:00,77.0,66.0,30.17,ENE,72,6.0,13.0,68,0.00,,,0.00,,2013-04-27 12:52:00,
2013-04-27 09:02:00,78.0,66.0,30.18,ENE,59,6.0,10.0,67,0.00,,,0.00,,2013-04-27 13:02:00,
2013-04-27 09:12:00,78.0,66.0,30.18,ENE,59,6.0,10.0,67,0.00,,,0.00,,2013-04-27 13:12:00,
2013-04-27 09:22:00,78.0,67.0,30.17,East,89,6.0,13.0,69,0.00,,,0.00,,2013-04-27 13:22:00,
2013-04-27 09:32:00,78.0,67.0,30.17,East,79,6.0,12.0,68,0.00,,,0.00,,2013-04-27 13:32:00,
2013-04-27 09:42:00,78.0,67.0,30.17,East,79,6.0,12.0,68,0.00,,,0.00,,2013-04-27 13:42:00,
2013-04-27 09:52:00,79.0,67.0,30.18,ENE,74,7.0,13.0,67,0.00,,,0.00,,2013-04-27 13:52:00,
2013-04-27 10:02:00,79.0,68.0,30.18,East,86,8.0,15.0,68,0.00,,,0.00,,2013-04-27 14:02:00,
2013-04-27 10:11:00,79.0,68.0,30.18,East,86,8.0,15.0,68,0.00,,,0.00,,2013-04-27 14:11:00,
2013-04-27 10:21:00,79.0,67.0,30.18,NE,46,5.0,12.0,67,0.00,,,0.00,,2013-04-27 14:21:00,
2013-04-27 10:32:00,79.0,68.0,30.18,East,94,6.0,13.0,68,0.00,,,0.00,,2013-04-27 14:32:00,
2013-04-27 10:42:00,79.0,68.0,30.18,East,94,6.0,13.0,68,0.00,,,0.00,,2013-04-27 14:42:00,
2013-04-27 10:52:00,79.0,67.0,30.18,ENE,66,5.0,14.0,67,0.00,,,0.00,,2013-04-27 14:52:00,
2013-04-27 11:01:00,80.0,68.0,30.18,ESE,121,7.0,14.0,67,0.00,,,0.00,,2013-04-27 15:01:00,
2013-04-27 11:12:00,80.0,68.0,30.18,ESE,121,7.0,14.0,67,0.00,,,0.00,,2013-04-27 15:12:00,
2013-04-27 11:22:00,80.0,67.0,30.18,East,91,8.0,15.0,65,0.00,,,0.00,,2013-04-27 15:22:00,
2013-04-27 11:33:00,81.0,69.0,30.18,ESE,112,6.0,13.0,67,0.00,,,0.00,,2013-04-27 15:33:00,
2013-04-27 11:43:00,81.0,69.0,30.18,ESE,112,6.0,13.0,67,0.00,,,0.00,,2013-04-27 15:43:00,
2013-04-27 11:53:00,80.0,68.0,30.18,ESE,104,5.0,17.0,66,0.00,,,0.00,,2013-04-27 15:53:00,
2013-04-27 12:03:00,81.0,69.0,30.18,ESE,107,6.0,14.0,67,0.00,,,0.00,,2013-04-27 16:03:00,
2013-04-27 12:13:00,81.0,69.0,30.18,ESE,107,6.0,14.0,67,0.00,,,0.00,,2013-04-27 16:13:00,
2013-04-27 12:22:00,80.0,68.0,30.19,ENE,71,9.0,14.0,66,0.00,,,0.00,,2013-04-27 16:22:00,
2013-04-27 12:33:00,80.0,68.0,30.19,NE,51,5.0,16.0,67,0.00,,,0.00,,2013-04-27 16:33:00,
2013-04-27 12:42:00,80.0,68.0,30.19,NE,51,5.0,16.0,67,0.00,,,0.00,,2013-04-27 16:42:00,
2013-04-27 12:53:00,80.0,69.0,30.18,East,94,5.0,16.0,69,0.00,,,0.00,,2013-04-27 16:53:00,
2013-04-27 13:02:00,80.0,69.0,30.18,ESE,105,3.0,14.0,70,1.18,,,1.18,,2013-04-27 17:02:00,
2013-04-27 13:12:00,80.0,69.0,30.18,ESE,105,3.0,14.0,70,1.18,,,1.18,,2013-04-27 17:12:00,
2013-04-27 13:22:00,80.0,69.0,30.18,ENE,58,2.0,11.0,69,1.23,,,1.23,,2013-04-27 17:22:00,
2013-04-27 13:32:00,80.0,68.0,30.17,ENE,75,7.0,13.0,66,1.23,,,1.23,,2013-04-27 17:32:00,
2013-04-27 13:42:00,80.0,68.0,30.17,ENE,75,7.0,13.0,66,1.23,,,1.23,,2013-04-27 17:42:00,
2013-04-27 13:53:00,81.0,69.0,30.17,East,86,6.0,12.0,68,1.23,,,1.23,,2013-04-27 17:53:00,
2013-04-27 14:02:00,81.0,69.0,30.17,SE,132,4.0,14.0,68,0.00,,,1.23,,2013-04-27 18:02:00,
2013-04-27 14:12:00,81.0,69.0,30.17,SE,132,4.0,14.0,68,0.00,,,1.23,,2013-04-27 18:12:00,
2013-04-27 14:22:00,81.0,69.0,30.17,NE,42,4.0,12.0,68,0.00,,,1.23,,2013-04-27 18:22:00,
2013-04-27 14:32:00,81.0,69.0,30.16,East,90,5.0,10.0,68,0.00,,,1.23,,2013-04-27 18:32:00,
2013-04-27 14:42:00,81.0,69.0,30.16,East,90,5.0,10.0,68,0.00,,,1.23,,2013-04-27 18:42:00,
2013-04-27 14:52:00,81.0,68.0,30.16,NE,36,5.0,11.0,64,0.00,,,1.23,,2013-04-27 18:52:00,
2013-04-27 15:02:00,81.0,68.0,30.15,East,79,3.0,11.0,65,0.00,,,1.23,,2013-04-27 19:02:00,
2013-04-27 15:11:00,81.0,68.0,30.15,East,79,3.0,11.0,65,0.00,,,1.23,,2013-04-27 19:11:00,
2013-04-27 15:22:00,81.0,67.0,30.15,East,90,5.0,14.0,63,0.00,,,1.23,,2013-04-27 19:22:00,
2013-04-27 15:32:00,81.0,67.0,30.14,East,86,6.0,15.0,63,0.00,,,1.23,,2013-04-27 19:32:00,
2013-04-27 15:42:00,81.0,67.0,30.14,East,86,6.0,15.0,63,0.00,,,1.23,,2013-04-27 19:42:00,
2013-04-27 15:53:00,81.0,68.0,30.14,ENE,78,6.0,15.0,65,0.00,,,1.23,,2013-04-27 19:53:00,
2013-04-27 16:02:00,81.0,68.0,30.14,ENE,78,6.0,15.0,65,0.00,,,1.23,,2013-04-27 20:02:00,
2013-04-27 16:11:00,81.0,68.0,30.14,ENE,78,6.0,15.0,65,0.00,,,1.23,,2013-04-27 20:11:00,
2013-04-27 16:22:00,81.0,68.0,30.13,ENE,64,4.0,11.0,64,0.00,,,1.23,,2013-04-27 20:22:00,
2013-04-27 16:32:00,81.0,68.0,30.12,ENE,59,3.0,11.0,64,0.00,,,1.23,,2013-04-27 20:32:00,
2013-04-27 16:42:00,81.0,68.0,30.12,ENE,59,3.0,11.0,64,0.00,,,1.23,,2013-04-27 20:42:00,
2013-04-27 16:52:00,80.0,66.0,30.12,NE,44,3.0,11.0,63,0.00,,,1.23,,2013-04-27 20:52:00,
2013-04-27 17:02:00,81.0,68.0,30.11,NE,46,5.0,8.0,64,0.00,,,1.23,,2013-04-27 21:02:00,
2013-04-27 17:12:00,81.0,68.0,30.11,NE,46,5.0,8.0,64,0.00,,,1.23,,2013-04-27 21:12:00,
2013-04-27 17:21:00,81.0,68.0,30.11,NE,46,5.0,8.0,64,0.00,,,1.23,,2013-04-27 21:21:00,
2013-04-27 17:33:00,81.0,69.0,30.11,East,91,3.0,8.0,66,0.00,,,1.23,,2013-04-27 21:33:00,
2013-04-27 17:43:00,81.0,69.0,30.11,East,91,3.0,8.0,66,0.00,,,1.23,,2013-04-27 21:43:00,
2013-04-27 17:53:00,80.0,66.0,30.11,ENE,63,4.0,10.0,62,0.00,,,1.23,,2013-04-27 21:53:00,
2013-04-27 18:03:00,80.0,68.0,30.11,East,99,2.0,9.0,66,0.00,,,1.23,,2013-04-27 22:03:00,
2013-04-27 18:13:00,80.0,68.0,30.11,East,99,2.0,9.0,66,0.00,,,1.23,,2013-04-27 22:13:00,
2013-04-27 18:23:00,80.0,68.0,30.10,ESE,109,4.0,9.0,67,0.00,,,1.23,,2013-04-27 22:23:00,
2013-04-27 18:32:00,80.0,69.0,30.10,ESE,103,1.0,10.0,69,0.00,,,1.23,,2013-04-27 22:32:00,
2013-04-27 18:42:00,80.0,69.0,30.10,ESE,103,1.0,10.0,69,0.00,,,1.23,,2013-04-27 22:42:00,
2013-04-27 18:52:00,79.0,68.0,30.10,East,83,3.0,10.0,70,0.00,,,1.23,,2013-04-27 22:52:00,
2013-04-27 19:02:00,79.0,69.0,30.10,East,94,1.0,8.0,71,0.00,,,1.23,,2013-04-27 23:02:00,
2013-04-27 19:12:00,79.0,69.0,30.10,East,94,1.0,8.0,71,0.00,,,1.23,,2013-04-27 23:12:00,
2013-04-27 19:22:00,78.0,68.0,30.10,East,80,3.0,8.0,71,0.00,,,1.23,,2013-04-27 23:22:00,
2013-04-27 19:32:00,78.0,68.0,30.10,NNE,30,3.0,7.0,72,0.00,,,1.23,,2013-04-27 23:32:00,
2013-04-27 19:42:00,78.0,68.0,30.10,NNE,30,3.0,7.0,72,0.00,,,1.23,,2013-04-27 23:42:00,
2013-04-27 19:52:00,77.0,68.0,30.10,East,84,0.0,9.0,75,0.00,,,1.23,,2013-04-27 23:52:00,
2013-04-27 20:01:00,76.0,68.0,30.10,East,80,1.0,9.0,76,0.00,,,1.23,,2013-04-28 00:01:00,
2013-04-27 20:12:00,76.0,68.0,30.10,East,80,1.0,9.0,76,0.00,,,1.23,,2013-04-28 00:12:00,
2013-04-27 20:22:00,76.0,68.0,30.10,ENE,69,2.0,8.0,77,0.00,,,1.23,,2013-04-28 00:22:00,
2013-04-27 20:32:00,76.0,68.0,30.11,ENE,65,0.0,6.0,77,0.00,,,1.23,,2013-04-28 00:32:00,
2013-04-27 20:43:00,76.0,68.0,30.11,ENE,65,0.0,6.0,77,0.00,,,1.23,,2013-04-28 00:43:00,
2013-04-27 20:52:00,75.0,67.0,30.11,ENE,71,0.0,7.0,77,0.00,,,1.23,,2013-04-28 00:52:00,
2013-04-27 21:02:00,75.0,67.0,30.11,ENE,70,2.0,8.0,77,0.00,,,1.23,,2013-04-28 01:02:00,
2013-04-27 21:11:00,75.0,67.0,30.11,ENE,70,2.0,8.0,77,0.00,,,1.23,,2013-04-28 01:11:00,
2013-04-27 21:22:00,75.0,67.0,30.11,NE,49,2.0,7.0,77,0.00,,,1.23,,2013-04-28 01:22:00,
2013-04-27 21:32:00,75.0,67.0,30.12,East,79,1.0,8.0,77,0.00,,,1.23,,2013-04-28 01:32:00,
2013-04-27 21:42:00,75.0,67.0,30.12,East,79,1.0,8.0,77,0.00,,,1.23,,2013-04-28 01:42:00,
2013-04-27 21:52:00,75.0,67.0,30.12,NE,53,0.0,7.0,77,0.00,,,1.23,,2013-04-28 01:52:00,
2013-04-27 22:02:00,75.0,67.0,30.13,ENE,76,1.0,9.0,75,0.00,,,1.23,,2013-04-28 02:02:00,
2013-04-27 22:12:00,75.0,67.0,30.13,ENE,76,1.0,9.0,75,0.00,,,1.23,,2013-04-28 02:12:00,
2013-04-27 22:22:00,75.0,67.0,30.14,NE,56,0.0,7.0,76,0.00,,,1.23,,2013-04-28 02:22:00,
2013-04-27 22:32:00,75.0,67.0,30.14,ENE,65,1.0,8.0,76,0.00,,,1.23,,2013-04-28 02:32:00,
2013-04-27 22:42:00,75.0,67.0,30.14,ENE,65,1.0,8.0,76,0.00,,,1.23,,2013-04-28 02:42:00,
2013-04-27 22:52:00,75.0,66.0,30.14,ENE,67,1.0,6.0,74,0.00,,,1.23,,2013-04-28 02:52:00,
2013-04-27 23:01:00,75.0,65.0,30.14,East,91,4.0,10.0,71,0.00,,,1.23,,2013-04-28 03:01:00,
2013-04-27 23:11:00,75.0,65.0,30.14,East,91,4.0,10.0,71,0.00,,,1.23,,2013-04-28 03:11:00,
2013-04-27 23:21:00,75.0,65.0,30.14,East,94,1.0,9.0,71,0.00,,,1.23,,2013-04-28 03:21:00,
2013-04-27 23:33:00,75.0,65.0,30.14,East,99,1.0,7.0,71,0.00,,,1.23,,2013-04-28 03:33:00,
2013-04-27 23:43:00,75.0,65.0,30.14,East,99,1.0,7.0,71,0.00,,,1.23,,2013-04-28 03:43:00,
2013-04-27 23:53:00,75.0,65.0,30.14,East,84,1.0,11.0,70,0.00,,,1.23,,2013-04-28 03:53:00,